Weather History for Hallock, MN

Change the Weather History Date:

Wednesday, March 27, 2013

  Actual Average Record
Temperature  
Mean Temperature 11 °F -  
Max Temperature 26 °F 35 °F 76 °F (1946)
Min Temperature -4 °F 20 °F -17 °F (1970)
Degree Days  
Heating Degree Days 54    
Moisture  
Dew Point 7 °F    
Average Humidity 84    
Maximum Humidity 93    
Minimum Humidity 74    
Precipitation  
Precipitation 0.00 in - - ()
Sea Level Pressure  
Sea Level Pressure 30.31 in    
Wind  
Wind Speed 1 mph (ESE)    
Max Wind Speed 8 mph    
Max Gust Speed -    
Visibility 7 miles    
Events Fog    
Averages and records for this station are not official NWS values.
T = Trace of Precipitation, MM = Missing Value Source: NWS Daily Summary

Daily Weather History Graph

Daily Weather History Graph

Search for Another Location

Airport:

Trip Planner

Search our weather history database for the weather conditions in past years. The results will help you decide how hot, cold, wet, or windy it might be!

Date:

Astronomy

Mar. 27, 2013 Rise Set
Actual Time 7:15 AM CDT 7:51 PM CDT
Civil Twilight 6:43 AM CDT 8:23 PM CDT
Nautical Twilight 6:06 AM CDT 9:01 PM CDT
Astronomical Twilight 5:26 AM CDT 9:40 PM CDT
Moon 8:44 PM CDT (3/27) 7:02 AM CDT (3/27)
Length of Visible Light 13h 39m
Length of Day
12h 36m
Full, 100% of the Moon is Illuminated
Mar 27
Full
Apr 2
Last Quarter
Apr 10
New
Apr 18
First Quarter
Apr 25
Full

Hourly Weather History & Observations

Time (CDT) Temp. Windchill Dew Point Humidity Pressure Visibility Wind Dir Wind Speed Gust Speed Precip Events Conditions
12:13 AM 1.4 °F - -0.4 °F 92% 30.31 in 10.0 mi Calm Calm - N/A   Overcast
12:34 AM -0.4 °F - -2.2 °F 92% 30.31 in 7.0 mi Calm Calm - N/A   Overcast
12:53 AM -0.4 °F - -5.8 °F 78% 30.31 in 10.0 mi Calm Calm - N/A   Mostly Cloudy
1:14 AM -0.4 °F - -2.2 °F 92% 30.31 in 10.0 mi Calm Calm - N/A   Mostly Cloudy
1:34 AM -0.4 °F - -4.0 °F 85% 30.31 in 0.8 mi Calm Calm - N/A   Overcast
1:53 AM -0.4 °F - -2.2 °F 92% 30.31 in 0.2 mi Calm Calm - N/A Fog Light Freezing Fog
2:14 AM -0.4 °F - -4.0 °F 85% 30.31 in 0.2 mi Calm Calm - N/A Fog Light Freezing Fog
2:34 AM -2.2 °F - -5.8 °F 85% 30.31 in 7.0 mi Calm Calm - N/A   Overcast
2:53 AM -2.2 °F - -5.8 °F 85% 30.32 in 1.2 mi Calm Calm - N/A   Overcast
3:14 AM -2.2 °F - -5.8 °F 85% 30.31 in 0.2 mi Calm Calm - N/A Fog Light Freezing Fog
3:34 AM -2.2 °F - -5.8 °F 85% 30.31 in 5.0 mi Calm Calm - N/A   Overcast
3:53 AM -2.2 °F - -5.8 °F 85% 30.31 in 10.0 mi Calm Calm - N/A   Overcast
4:14 AM -2.2 °F - -5.8 °F 85% 30.31 in 10.0 mi Calm Calm - N/A   Overcast
4:34 AM -2.2 °F - -5.8 °F 85% 30.31 in 7.0 mi Calm Calm - N/A   Overcast
4:53 AM -2.2 °F - -5.8 °F 85% 30.31 in 7.0 mi Calm Calm - N/A   Overcast
5:14 AM -2.2 °F - -5.8 °F 85% 30.31 in 0.2 mi Calm Calm - N/A Fog Light Freezing Fog
5:34 AM -2.2 °F - -5.8 °F 85% 30.31 in 2.0 mi Calm Calm - N/A   Overcast
5:53 AM -2.2 °F - -5.8 °F 85% 30.31 in 0.5 mi Calm Calm - N/A Fog Light Freezing Fog
6:14 AM 1.4 °F - -2.2 °F 85% 30.31 in 0.2 mi Calm Calm - N/A Fog Light Freezing Fog
6:34 AM -0.4 °F - -4.0 °F 85% 30.31 in 0.2 mi Calm Calm - N/A Fog Light Freezing Fog
6:54 AM -2.2 °F - -5.8 °F 85% 30.31 in 0.2 mi Calm Calm - N/A Fog Light Freezing Fog
7:14 AM -2.2 °F - -5.8 °F 85% 30.31 in 0.5 mi Calm Calm - N/A Fog Light Freezing Fog
7:34 AM -4.0 °F - -7.6 °F 85% 30.32 in 7.0 mi Calm Calm - N/A   Scattered Clouds
7:54 AM -4.0 °F - -7.6 °F 85% 30.32 in 7.0 mi Calm Calm - N/A   Clear
8:14 AM -2.2 °F - -5.8 °F 85% 30.32 in 4.0 mi Calm Calm - N/A   Clear
8:33 AM -2.2 °F - -5.8 °F 85% 30.33 in 3.0 mi Calm Calm - N/A   Mist
8:54 AM -0.4 °F - -5.8 °F 78% 30.33 in 3.0 mi Calm Calm - N/A   Clear
9:13 AM 1.4 °F - -2.2 °F 85% 30.33 in 4.0 mi Calm Calm - N/A   Clear
9:34 AM 1.4 °F - -2.2 °F 85% 30.33 in 2.0 mi Calm Calm - N/A   Mostly Cloudy
9:54 AM 3.2 °F - -0.4 °F 85% 30.33 in 5.0 mi Calm Calm - N/A   Clear
10:13 AM 5.0 °F - 3.2 °F 92% 30.33 in 7.0 mi Calm Calm - N/A   Clear
10:34 AM 6.8 °F - 3.2 °F 85% 30.33 in 7.0 mi Calm Calm - N/A   Clear
10:54 AM 8.6 °F - 6.8 °F 92% 30.33 in 10.0 mi Calm Calm - N/A   Clear
11:13 AM 10.4 °F - 6.8 °F 85% 30.33 in 7.0 mi Calm Calm - N/A   Clear
11:34 AM 12.2 °F - 10.4 °F 92% 30.34 in 10.0 mi Calm Calm - N/A   Clear
11:54 AM 14.0 °F - 12.2 °F 93% 30.34 in 10.0 mi Calm Calm - N/A   Clear
12:13 PM 15.8 °F - 12.2 °F 86% 30.34 in 7.0 mi Calm Calm - N/A   Clear
12:34 PM 17.6 °F 12.3 °F 15.8 °F 93% 30.34 in 10.0 mi WNW 3.5 mph - N/A   Clear
12:54 PM 19.4 °F - 15.8 °F 86% 30.34 in 10.0 mi Calm Calm - N/A   Unknown
1:14 PM 21.2 °F - 17.6 °F 86% 30.33 in 10.0 mi Calm Calm - N/A   Clear
1:33 PM 21.2 °F - 17.6 °F 86% 30.33 in 10.0 mi Calm Calm - N/A   Clear
1:54 PM 23.0 °F - 17.6 °F 80% 30.33 in 10.0 mi Calm Calm - N/A   Clear
2:14 PM 23.0 °F 18.4 °F 17.6 °F 80% 30.33 in 10.0 mi South 3.5 mph - N/A   Clear
2:33 PM 23.0 °F 15.8 °F 17.6 °F 80% 30.33 in 10.0 mi SSW 5.8 mph - N/A   Clear
2:54 PM 23.0 °F 18.4 °F 17.6 °F 80% 30.32 in 10.0 mi South 3.5 mph - N/A   Clear
3:14 PM 24.8 °F 20.5 °F 17.6 °F 74% 30.32 in 10.0 mi South 3.5 mph - N/A   Clear
3:33 PM 24.8 °F - 19.4 °F 80% 30.31 in 10.0 mi Calm Calm - N/A   Clear
3:54 PM 24.8 °F - 19.4 °F 80% 30.31 in 10.0 mi Calm Calm - N/A   Clear
4:14 PM 26.6 °F 22.6 °F 19.4 °F 74% 30.31 in 10.0 mi South 3.5 mph - N/A   Clear
4:33 PM 26.6 °F 22.6 °F 21.2 °F 80% 30.31 in 10.0 mi South 3.5 mph - N/A   Clear
4:54 PM 26.6 °F - 21.2 °F 80% 30.31 in 10.0 mi Calm Calm - N/A   Clear
5:14 PM 26.6 °F - 21.2 °F 80% 30.31 in 10.0 mi Calm Calm - N/A   Clear
5:33 PM 26.6 °F - 21.2 °F 80% 30.31 in 10.0 mi Calm Calm - N/A   Clear
5:54 PM 26.6 °F - 21.2 °F 80% 30.31 in 10.0 mi Calm Calm - N/A   Clear
6:14 PM 26.6 °F - 19.4 °F 74% 30.30 in 10.0 mi Calm Calm - N/A   Clear
6:34 PM 26.6 °F - 21.2 °F 80% 30.30 in 10.0 mi Calm Calm - N/A   Clear
6:54 PM 26.6 °F - 19.4 °F 74% 30.30 in 10.0 mi Calm Calm - N/A   Clear
7:14 PM 26.6 °F - 19.4 °F 74% 30.30 in 10.0 mi Calm Calm - N/A   Clear
7:34 PM 24.8 °F - 17.6 °F 74% 30.30 in 10.0 mi Calm Calm - N/A   Clear
7:54 PM 23.0 °F - 17.6 °F 80% 30.30 in 10.0 mi Calm Calm - N/A   Clear
8:14 PM 21.2 °F - 15.8 °F 80% 30.30 in 10.0 mi Calm Calm - N/A   Clear
8:34 PM 17.6 °F - 12.2 °F 79% 30.29 in 10.0 mi Calm Calm - N/A   Clear
8:54 PM 15.8 °F - 10.4 °F 79% 30.29 in 10.0 mi Calm Calm - N/A   Clear
9:14 PM 14.0 °F 8.2 °F 10.4 °F 86% 30.29 in 10.0 mi East 3.5 mph - N/A   Clear
9:34 PM 15.8 °F 8.6 °F 10.4 °F 79% 30.29 in 10.0 mi East 4.6 mph - N/A   Clear
9:54 PM 14.0 °F 6.5 °F 10.4 °F 86% 30.29 in 10.0 mi East 4.6 mph - N/A   Clear
10:14 PM 12.2 °F 4.3 °F 10.4 °F 92% 30.29 in 10.0 mi East 4.6 mph - N/A   Clear
10:34 PM 10.4 °F 0.8 °F 6.8 °F 85% 30.29 in 10.0 mi East 5.8 mph - N/A   Clear
10:54 PM 15.8 °F 5.1 °F 10.4 °F 79% 30.29 in 10.0 mi East 8.1 mph - N/A   Clear
11:14 PM 17.6 °F 8.2 °F 12.2 °F 79% 30.29 in 10.0 mi East 6.9 mph - N/A   Clear
11:34 PM 15.8 °F 7.2 °F 10.4 °F 79% 30.29 in 10.0 mi East 5.8 mph - N/A   Clear
11:54 PM 12.2 °F 0.7 °F 10.4 °F 92% 30.29 in 10.0 mi East 8.1 mph - N/A   Clear